Home   Weather   Nikaia   Past weeks

Flag for Greece Past Weather in Nikaia, Greece — Yesterday and Last 2 Weeks

Now
50 °F

Scattered clouds.


Feels Like: 46 °F
Forecast: 41 / 52 °F
Wind: 9 mph from Northwest

Location: Elefsis Airport

Current Time: Jan 21, 2017 at 5:35:21 pm

Latest Report: Jan 21, 2017 at 4:50 pm


Visibility: N/A

Pressure: 30.33 "Hg

Humidity: 62%

Dew Point: 37 °F

Location of NikaiaLocation

Past Weather in Nikaia — Graph

°F

Nikaia Temperature Yesterday

Maximum temperature yesterday: 52 °F (at 2:50 pm)
Minimum temperature yesterday: 45 °F (at 5:20 am)
Average temperature yesterday: 47 °F

High & Low Weather Summary for the Past Weeks

 TemperatureHumidityPressure
High64 °F (Jan 14, 1:50 pm)100% (Jan 8, 8:20 am)30.45 "Hg (Jan 8, 8:20 am)
Low28 °F (Jan 8, 2:20 am)23% (Jan 15, 12:20 pm)29.59 "Hg (Jan 6, 4:20 pm)
Average43 °F68%30.00 "Hg
* Reported Jan 6 4:20 pm — Jan 21 4:20 pm, Nikaia, Weather by CustomWeather, © 2017

Note: Actual official high and low records may vary slightly from our data, if they occured in-between our weather recording intervals... More about our weather records

Advertising

Nikaia Weather History for the Previous 24 Hours

Scroll right to see more
 ConditionsComfort  
Time TempWeatherWind HumidityBarometerVisibility
4:20 pm
Sat, Jan 21
50 °FScattered clouds.8 mph62%30.36 "HgN/A
3:50 pm52 °FScattered clouds.9 mph54%30.36 "HgN/A
3:20 pm52 °FScattered clouds.12 mph58%30.36 "HgN/A
2:50 pm52 °FScattered clouds.12 mph58%30.36 "HgN/A
2:20 pm52 °FScattered clouds.10 mph54%30.36 "HgN/A
1:50 pm52 °FScattered clouds.9 mph58%30.33 "HgN/A
1:20 pm52 °FScattered clouds.9 mph54%30.36 "HgN/A
12:50 pm52 °FScattered clouds.10 mph54%30.39 "HgN/A
12:20 pm52 °FScattered clouds.12 mph54%30.39 "HgN/A
11:20 am50 °FScattered clouds.9 mph58%30.42 "HgN/A
10:50 am50 °FScattered clouds.7 mph58%30.39 "HgN/A
10:20 am48 °FScattered clouds.6 mph62%30.42 "HgN/A
9:50 am48 °FScattered clouds.7 mph66%30.42 "HgN/A
9:20 am46 °FScattered clouds.6 mph71%30.42 "HgN/A
8:50 am45 °FScattered clouds.6 mph71%30.42 "HgN/A
8:20 am45 °FScattered clouds.6 mph71%30.39 "HgN/A
7:50 am43 °FScattered clouds.6 mph71%30.39 "HgN/A
7:20 am43 °FPassing clouds.6 mph76%30.39 "HgN/A
6:50 am45 °FPassing clouds.9 mph71%30.39 "HgN/A
6:20 am43 °FPassing clouds.8 mph76%30.39 "HgN/A
5:20 am43 °FPassing clouds.9 mph76%30.39 "HgN/A
4:50 am43 °FPassing clouds.7 mph76%30.39 "HgN/A
4:20 am45 °FPassing clouds.5 mph71%30.39 "HgN/A
3:50 am45 °FPassing clouds.No wind71%30.39 "HgN/A
2:50 am43 °FPassing clouds.7 mph76%30.42 "HgN/A
1:50 am43 °FPassing clouds.5 mph76%30.45 "HgN/A
1:20 am45 °FPassing clouds.No wind66%30.42 "HgN/A
12:50 am45 °FPassing clouds.No wind66%30.42 "HgN/A
11:50 pm
Fri, Jan 20
45 °FPassing clouds.6 mph66%30.42 "HgN/A
11:20 pm45 °FPassing clouds.7 mph66%30.45 "HgN/A
10:50 pm45 °FPassing clouds.6 mph66%30.45 "HgN/A
10:20 pm45 °FPassing clouds.5 mph66%30.45 "HgN/A
9:50 pm45 °FPassing clouds.8 mph66%30.42 "HgN/A
9:20 pm45 °FPassing clouds.6 mph71%30.42 "HgN/A
8:20 pm45 °FPassing clouds.9 mph71%30.42 "HgN/A
7:50 pm46 °FPassing clouds.9 mph62%30.42 "HgN/A
7:20 pm46 °FPassing clouds.9 mph66%30.42 "HgN/A
6:50 pm46 °FPassing clouds.9 mph62%30.42 "HgN/A
6:20 pm46 °FPassing clouds.8 mph62%30.42 "HgN/A
5:50 pm46 °FPassing clouds.8 mph66%30.42 "HgN/A
5:20 pm48 °FPartly sunny.7 mph62%30.42 "HgN/A
Weather by CustomWeather, © 2017

See weather overviewHow to use our weather pages